Tracking 18945 objects as of 21-Jan-2018
HD Live streaming from Space Station
objects crossing your sky now

FENGYUN 1C DEB

Track FENGYUN 1C DEB now!
10-day predictions


NORAD ID: 32230
Int'l Code: 1999-025CWC
Perigee: 763.9 km
Apogee: 894.8 km
Inclination: 98.9 °
Period: 101.3 minutes
Semi major axis: 7200 km
RCS: 0.0054 m2 (small)
Launch date: May 10, 1999
Source: People's Republic of China (PRC)
Launch site: Taiyaun Space Center, China (TSC)

Note: This is SATELLITE DEBRIS
aabbcc
Your satellite tracking list
Your tracking list is empty




NASA's NSSDC Master Catalog

Two Line Element Set (TLE):
1 32230U 99025CWC 18019.14122861 +.00000869 +00000-0 +40518-3 0  9993
2 32230 098.8978 087.5152 0090891 200.5859 192.2571 14.20925235194874
Source of the keplerian elements: AFSPC